Location: Helsinki
(60.1699°N, 24.9384°E)
Time: 04:10:27
(UTC+03:00)

Envisat - Pass Details

Date: 18 August 2022
Orbit: 763 x 765 km, 98.2° (Epoch: 30 September)

Event Time Altitude Azimuth Distance (km) Brightness Sun altitude
Rises 03:51:16 0° 25° (NNE) 3,249 8.2 -11.0°
Reaches altitude 10° 03:56:03 10° 66° (ENE) 2,314 6.6 -10.6°
Maximum altitude 03:56:57 10° 76° (ENE) 2,284 6.3 -10.6°
Drops below altitude 10° 03:57:50 10° 86° (E) 2,311 6.1 -10.5°
Sets 04:02:34 0° 127° (SE) 3,229 6.3 -10.1°
